�������l�o���
Date,Time,MP-1(��Sv/h),MP-2(��Sv/h),MP-3(��Sv/h),MP-4(��Sv/h),MP-5(��Sv/h),MP-6(��Sv/h),MP-7(��Sv/h),����,����(m/s),���J
2019/09/21,00:00,0.187,0.164,0.284,0.266,0.266,0.143,0.088,�k,4.4,��
2019/09/21,00:10,0.188,0.165,0.281,0.265,0.264,0.143,0.089,�k�k��,4.0,��
2019/09/21,00:20,0.187,0.165,0.285,0.267,0.267,0.143,0.088,�k�k��,4.3,��
2019/09/21,00:30,0.189,0.166,0.282,0.266,0.264,0.143,0.089,�k,3.9,��
2019/09/21,00:40,0.187,0.164,0.284,0.268,0.267,0.144,0.088,�k�k��,3.6,��
2019/09/21,00:50,0.188,0.165,0.281,0.265,0.265,0.144,0.089,�k�k��,3.5,��
2019/09/21,01:00,0.187,0.164,0.283,0.267,0.268,0.144,0.088,�k�k��,3.9,��
2019/09/21,01:10,0.188,0.164,0.281,0.265,0.266,0.144,0.089,�k�k��,3.0,��
2019/09/21,01:20,0.189,0.165,0.285,0.266,0.266,0.144,0.089,�k�k��,3.5,��
2019/09/21,01:30,0.188,0.165,0.282,0.265,0.265,0.144,0.089,�k�k��,4.7,��
2019/09/21,01:40,0.189,0.166,0.284,0.267,0.265,0.143,0.088,�k�k��,4.8,��
2019/09/21,01:50,0.187,0.165,0.281,0.266,0.268,0.142,0.088,�k,4.1,��
2019/09/21,02:00,0.188,0.165,0.284,0.267,0.265,0.143,0.088,�k,3.8,��
2019/09/21,02:10,0.187,0.165,0.282,0.266,0.268,0.142,0.089,�k,4.1,��
2019/09/21,02:20,0.188,0.165,0.284,0.267,0.265,0.144,0.089,�k�k��,4.3,��
2019/09/21,02:30,0.188,0.165,0.281,0.268,0.268,0.143,0.089,�k�k��,4.5,��
2019/09/21,02:40,0.189,0.166,0.285,0.266,0.264,0.144,0.088,�k�k��,4.7,��
2019/09/21,02:50,0.188,0.165,0.282,0.267,0.268,0.143,0.088,�k�k��,5.3,��
2019/09/21,03:00,0.189,0.165,0.284,0.266,0.266,0.143,0.089,�k�k��,5.0,��
2019/09/21,03:10,0.188,0.164,0.281,0.267,0.266,0.143,0.089,�k�k��,5.2,��
2019/09/21,03:20,0.188,0.165,0.284,0.268,0.266,0.144,0.088,�k�k��,4.9,��
2019/09/21,03:30,0.188,0.165,0.282,0.266,0.266,0.143,0.089,�k�k��,4.7,��
2019/09/21,03:40,0.188,0.165,0.283,0.266,0.268,0.144,0.088,�k�k��,5.4,��
2019/09/21,03:50,0.190,0.165,0.283,0.268,0.265,0.143,0.089,�k�k��,5.2,��
2019/09/21,04:00,0.188,0.165,0.283,0.266,0.267,0.144,0.089,�k�k��,5.3,��
2019/09/21,04:10,0.189,0.165,0.282,0.267,0.264,0.143,0.088,�k�k��,5.1,��
2019/09/21,04:20,0.187,0.165,0.283,0.264,0.267,0.144,0.089,�k�k��,5.3,��
2019/09/21,04:30,0.189,0.164,0.282,0.267,0.265,0.144,0.089,�k��,5.2,��
2019/09/21,04:40,0.189,0.165,0.284,0.265,0.267,0.143,0.089,�k��,5.5,��
2019/09/21,04:50,0.189,0.164,0.284,0.268,0.266,0.143,0.089,�k�k��,5.3,��
2019/09/21,05:00,0.188,0.165,0.284,0.265,0.266,0.143,0.089,�k�k��,5.3,��
2019/09/21,05:10,0.189,0.163,0.283,0.268,0.266,0.144,0.089,�k�k��,5.8,��
2019/09/21,05:20,0.187,0.165,0.284,0.266,0.266,0.143,0.089,�k�k��,5.9,��
2019/09/21,05:30,0.189,0.164,0.285,0.267,0.265,0.144,0.088,�k�k��,6.1,��
2019/09/21,05:40,0.188,0.166,0.283,0.266,0.265,0.144,0.088,�k�k��,6.2,��
2019/09/21,05:50,0.187,0.164,0.283,0.266,0.268,0.144,0.088,�k�k��,5.9,��
2019/09/21,06:00,0.188,0.165,0.283,0.266,0.265,0.144,0.088,�k��,5.4,��
2019/09/21,06:10,0.187,0.164,0.284,0.267,0.266,0.143,0.088,�k�k��,5.8,��
2019/09/21,06:20,0.190,0.165,0.281,0.266,0.263,0.143,0.089,�k�k��,4.8,��
2019/09/21,06:30,0.187,0.164,0.285,0.268,0.268,0.144,0.088,�k��,6.4,��
2019/09/21,06:40,0.189,0.164,0.282,0.267,0.265,0.143,0.089,�k�k��,6.2,��
2019/09/21,06:50,0.188,0.164,0.285,0.269,0.267,0.144,0.088,�k�k��,6.2,�L
2019/09/21,07:00,0.188,0.164,0.282,0.267,0.266,0.143,0.088,�k�k��,6.2,��
2019/09/21,07:10,0.189,0.165,0.286,0.266,0.266,0.144,0.088,�k�k��,5.5,��
2019/09/21,07:20,0.188,0.165,0.281,0.267,0.268,0.143,0.088,�k�k��,5.6,��
2019/09/21,07:30,0.189,0.164,0.284,0.266,0.265,0.143,0.088,�k�k��,5.0,��
2019/09/21,07:40,0.187,0.164,0.282,0.268,0.268,0.143,0.088,�k�k��,5.4,��
2019/09/21,07:50,0.188,0.165,0.283,0.266,0.267,0.143,0.088,�k�k��,5.9,��
2019/09/21,08:00,0.189,0.164,0.283,0.266,0.264,0.144,0.089,�k�k��,5.1,��
2019/09/21,08:10,0.189,0.164,0.282,0.267,0.268,0.144,0.088,�k�k��,3.7,��
2019/09/21,08:20,0.189,0.166,0.284,0.264,0.265,0.144,0.088,�k�k��,3.6,��
2019/09/21,08:30,0.188,0.164,0.282,0.267,0.265,0.144,0.089,�k�k��,4.1,��
2019/09/21,08:40,0.188,0.163,0.284,0.267,0.268,0.143,0.089,�k�k��,4.5,��
2019/09/21,08:50,0.188,0.166,0.283,0.265,0.265,0.142,0.088,�k�k��,3.9,��
2019/09/21,09:00,0.187,0.163,0.282,0.263,0.263,0.144,0.088,�k�k��,2.8,��
2019/09/21,09:10,0.188,0.164,0.284,0.268,0.265,0.144,0.088,�k�k��,2.8,��
2019/09/21,09:20,0.189,0.165,0.282,0.266,0.268,0.143,0.087,�k�k��,1.8,��
2019/09/21,09:30,0.187,0.164,0.283,0.265,0.265,0.144,0.088,�k�k��,1.7,��
2019/09/21,09:40,0.188,0.163,0.283,0.264,0.263,0.143,0.088,�k,2.4,��
2019/09/21,09:50,0.189,0.165,0.283,0.266,0.263,0.144,0.088,�k�k��,2.5,��
2019/09/21,10:00,0.188,0.164,0.282,0.267,0.267,0.142,0.087,�k�k��,2.8,��
2019/09/21,10:10,0.187,0.164,0.285,0.266,0.265,0.144,0.088,�k�k��,2.9,��
2019/09/21,10:20,0.188,0.165,0.284,0.265,0.265,0.144,0.088,�k�k��,3.3,��
2019/09/21,10:30,0.188,0.165,0.282,0.268,0.263,0.143,0.089,�k��,2.3,��
2019/09/21,10:40,0.187,0.164,0.284,0.268,0.267,0.142,0.087,�k��,1.7,��
2019/09/21,10:50,0.190,0.164,0.282,0.266,0.267,0.144,0.088,�k�k��,1.2,��
2019/09/21,11:00,0.189,0.166,0.280,0.265,0.264,0.143,0.088,�k�k��,2.0,��
2019/09/21,11:10,0.189,0.165,0.284,0.268,0.263,0.143,0.088,�k,2.3,��
2019/09/21,11:20,0.187,0.164,0.283,0.266,0.266,0.143,0.088,�k,1.3,��
2019/09/21,11:30,0.190,0.164,0.281,0.265,0.267,0.143,0.088,�k��,1.7,��
2019/09/21,11:40,0.187,0.166,0.283,0.266,0.265,0.143,0.089,���k��,3.0,��
2019/09/21,11:50,0.188,0.166,0.284,0.268,0.265,0.143,0.088,�k��,2.8,��
2019/09/21,12:00,0.189,0.163,0.282,0.267,0.263,0.143,0.087,�k��,1.8,��
2019/09/21,12:10,0.188,0.164,0.281,0.263,0.266,0.143,0.087,�k�k��,2.5,��
2019/09/21,12:20,0.188,0.165,0.285,0.264,0.269,0.144,0.089,���k��,3.0,��
2019/09/21,12:30,0.186,0.165,0.285,0.269,0.266,0.144,0.089,���k��,2.4,��
2019/09/21,12:40,0.187,0.165,0.282,0.268,0.266,0.143,0.088,�k��,2.7,��
2019/09/21,12:50,0.190,0.164,0.280,0.266,0.265,0.142,0.088,�k�k��,1.8,��
2019/09/21,13:00,0.189,0.163,0.283,0.264,0.263,0.144,0.088,�k��,2.6,��
2019/09/21,13:10,0.186,0.167,0.284,0.269,0.265,0.144,0.088,�k��,1.9,�L
2019/09/21,13:20,0.190,0.165,0.282,0.267,0.268,0.143,0.089,�k��,1.7,��
2019/09/21,13:30,0.189,0.165,0.282,0.267,0.268,0.143,0.088,�k,1.2,�L
2019/09/21,13:40,0.188,0.165,0.286,0.266,0.264,0.144,0.088,�k�k��,1.9,�L
2019/09/21,13:50,0.190,0.166,0.283,0.269,0.266,0.144,0.089,�k,1.9,��
2019/09/21,14:00,0.189,0.164,0.282,0.267,0.269,0.143,0.089,�k,2.2,��
2019/09/21,14:10,0.187,0.165,0.285,0.266,0.266,0.142,0.088,�k�k��,2.4,��
2019/09/21,14:20,0.190,0.166,0.282,0.268,0.264,0.143,0.088,�k,1.6,��
2019/09/21,14:30,0.190,0.165,0.283,0.269,0.265,0.144,0.089,�k��,2.0,��
2019/09/21,14:40,0.188,0.164,0.286,0.265,0.269,0.143,0.088,�k��,2.6,��
2019/09/21,14:50,0.189,0.165,0.283,0.268,0.268,0.143,0.088,�k��,1.7,��
2019/09/21,15:00,0.189,0.165,0.283,0.269,0.264,0.143,0.089,�k�k��,0.9,��
2019/09/21,15:10,0.188,0.165,0.285,0.265,0.267,0.144,0.089,�k�k��,1.0,��
2019/09/21,15:20,0.189,0.166,0.283,0.267,0.267,0.143,0.088,�k��,1.1,��
2019/09/21,15:30,0.190,0.165,0.283,0.268,0.266,0.144,0.089,���k��,0.7,��
2019/09/21,15:40,0.188,0.164,0.286,0.267,0.264,0.143,0.089,�k�k��,1.7,��
2019/09/21,15:50,0.188,0.166,0.283,0.268,0.269,0.144,0.088,�k�k��,1.9,��
2019/09/21,16:00,0.189,0.166,0.283,0.268,0.267,0.143,0.088,�k,1.3,��
2019/09/21,16:10,0.187,0.165,0.286,0.265,0.264,0.143,0.089,�k,1.3,��
2019/09/21,16:20,0.189,0.166,0.283,0.268,0.267,0.144,0.089,�k�k��,1.4,��
2019/09/21,16:30,0.190,0.165,0.285,0.267,0.268,0.143,0.088,�k��,1.7,��
2019/09/21,16:40,0.188,0.165,0.285,0.266,0.263,0.144,0.089,���k��,1.5,��
2019/09/21,16:50,0.189,0.166,0.281,0.268,0.268,0.144,0.088,�k�k��,1.3,��
2019/09/21,17:00,0.187,0.165,0.285,0.268,0.267,0.143,0.089,�k�k��,0.9,��
2019/09/21,17:10,0.188,0.166,0.284,0.266,0.263,0.144,0.089,�k��,1.4,��
2019/09/21,17:20,0.190,0.165,0.282,0.268,0.268,0.144,0.088,�k�k��,1.1,��
2019/09/21,17:30,0.188,0.164,0.285,0.266,0.267,0.143,0.089,-,CALM,��
2019/09/21,17:40,0.189,0.166,0.282,0.269,0.265,0.145,0.089,�k,0.7,��
2019/09/21,17:50,0.190,0.165,0.286,0.268,0.268,0.143,0.088,�k,0.9,��
2019/09/21,18:00,0.188,0.166,0.282,0.267,0.265,0.143,0.089,-,CALM,��
2019/09/21,18:10,0.190,0.165,0.285,0.269,0.268,0.143,0.088,���쐼,0.6,��
2019/09/21,18:20,0.188,0.166,0.285,0.266,0.268,0.143,0.088,-,CALM,��
2019/09/21,18:30,0.189,0.165,0.283,0.269,0.265,0.144,0.089,�k�k��,0.8,��
2019/09/21,18:40,0.189,0.165,0.286,0.267,0.268,0.144,0.088,-,CALM,��
2019/09/21,18:50,0.188,0.166,0.282,0.268,0.266,0.144,0.088,�k��,0.8,��
2019/09/21,19:00,0.190,0.165,0.284,0.267,0.266,0.145,0.088,�k��,0.8,��
2019/09/21,19:10,0.187,0.166,0.285,0.267,0.268,0.143,0.088,�쐼,0.9,��
2019/09/21,19:20,0.189,0.164,0.285,0.269,0.265,0.144,0.089,�k��,0.6,��
2019/09/21,19:30,0.189,0.166,0.285,0.266,0.268,0.144,0.088,��,0.7,��
2019/09/21,19:40,0.188,0.166,0.283,0.269,0.266,0.144,0.089,��,1.0,��
2019/09/21,19:50,0.190,0.166,0.287,0.267,0.266,0.144,0.089,�k��,0.6,��
2019/09/21,20:00,0.188,0.165,0.284,0.268,0.269,0.143,0.089,-,CALM,��
2019/09/21,20:10,0.189,0.166,0.286,0.268,0.265,0.145,0.089,-,CALM,��
2019/09/21,20:20,0.188,0.166,0.284,0.267,0.268,0.144,0.089,-,CALM,��
2019/09/21,20:30,0.188,0.165,0.285,0.270,0.267,0.143,0.089,-,CALM,��
2019/09/21,20:40,0.190,0.166,0.286,0.266,0.265,0.145,0.088,-,CALM,��
2019/09/21,20:50,0.188,0.165,0.284,0.269,0.268,0.144,0.089,-,CALM,��
2019/09/21,21:00,0.191,0.166,0.286,0.268,0.265,0.144,0.089,-,CALM,��
2019/09/21,21:10,0.188,0.165,0.282,0.267,0.268,0.144,0.089,-,CALM,��
2019/09/21,21:20,0.189,0.166,0.286,0.267,0.267,0.144,0.089,�k��,0.8,��
2019/09/21,21:30,0.189,0.165,0.283,0.267,0.266,0.143,0.088,-,CALM,��
2019/09/21,21:40,0.188,0.166,0.286,0.269,0.268,0.143,0.089,��,0.6,��
2019/09/21,21:50,0.191,0.165,0.285,0.266,0.265,0.144,0.089,���쐼,1.0,��
2019/09/21,22:00,0.188,0.166,0.284,0.269,0.268,0.144,0.089,���쐼,0.7,��
2019/09/21,22:10,0.190,0.165,0.285,0.267,0.266,0.144,0.089,-,CALM,��
2019/09/21,22:20,0.189,0.166,0.282,0.270,0.267,0.143,0.088,���쐼,1.2,��
2019/09/21,22:30,0.189,0.165,0.286,0.266,0.268,0.145,0.089,���쐼,0.9,��
2019/09/21,22:40,0.189,0.166,0.282,0.270,0.264,0.143,0.088,�쐼,0.7,��
2019/09/21,22:50,0.188,0.166,0.286,0.266,0.268,0.144,0.088,-,CALM,��
2019/09/21,23:00,0.190,0.166,0.283,0.269,0.264,0.142,0.088,-,CALM,��
2019/09/21,23:10,0.188,0.167,0.287,0.268,0.269,0.142,0.089,-,CALM,��
2019/09/21,23:20,0.189,0.165,0.285,0.268,0.266,0.145,0.089,�k��,0.6,��
2019/09/21,23:30,0.188,0.167,0.284,0.269,0.265,0.143,0.089,-,CALM,��
2019/09/21,23:40,0.189,0.165,0.286,0.266,0.267,0.144,0.088,�k,0.8,��
2019/09/21,23:50,0.188,0.166,0.285,0.268,0.265,0.144,0.089,-,CALM,��
